Location: Exeidioux
(45.6312°N, 1.6819°E)
Time: 20:43:33
(UTC+00:00)

USA 305 - Pass Details

Date: 03 March 2021
Orbit: 567 x 574 km, 54.0° (Epoch: 13 April)

Event Time Altitude Azimuth Distance (km) Brightness Sun altitude
Rises 19:44:26 0° 295° (WNW) 2,780 7.8 -21.9°
Reaches altitude 10° 19:46:58 10° 308° (NW) 1,880 6.5 -22.3°
Maximum altitude 19:50:38 27° 7° (N) 1,109 4.4 -22.9°
Enters shadow 19:51:05 27° 18° (NNE) 1,124 4.3 -23.0°
